[[{"header":{"parameterUnit":"m.s-1","parameterCategory":2,"la1":30.2991,"la2":30.254,"lo1":-89.0895,"lo2":-89.0444,"dy":0.0017,"dx":0.0017,"nx":28,"ny":28,"refTime":"2024-09-03T21:00:00:Z","depth":"0","parameterNumber":2,"parameterNumberName":"U-component_of_CURRENTS"},"data":[0,0,0,0,0,0,0,0,0,0,0,0,0,0,0,0,0,0,0,0,0,0,0,0,0,0,0,0,0,0,0,0,0,0,0,0,0,0,0,0,0,0,0,0,0,0,0,0,0,0,0,0,0,0,0,0,0,0,0.1284,0.1284,0,0.1291,0.1291,0.1291,0.129,0.1289,0.1289,0.1289,0.1354,0.1355,0.1357,0,0,0,0,0,0,0,0,0,0,0,0,0,0.1275,0.1275,0.1284,0.1284,0.1284,0.1291,0.1291,0.1291,0.129,0.1289,0.1289,0.1289,0.1353,0.1355,0.1357,0,0,0,0,0,0,0,0,0,0,0,0,0,0.1281,0.1275,0.1284,0.1283,0.1283,0.1291,0.1291,0.1291,0.129,0.1289,0.1289,0.1289,0.1352,0.1355,0.1358,0.1381,0,0,0.1366,0.1368,0,0,0,0,0,0,0,0,0.128,0.1281,0.1283,0.1283,0.1283,0.1288,0.1311,0.1324,0.129,0.1288,0.1289,0.1289,0.1337,0.1341,0.1343,0.1384,0.1386,0.1367,0.1368,0.137,0.137,0,0,0,0,0,0,0,0.128,0.1281,0.1287,0.1283,0.1283,0.1285,0.1286,0.1314,0.1315,0.1288,0.1288,0.1288,0.1337,0.134,0.1345,0.1387,0.1367,0.1369,0.1371,0.1372,0.1545,0.1547,0,0,0,0,0,0,0.1278,0.1281,0.1287,0.1287,0.1281,0.1285,0.1286,0.1288,0.1314,0.1317,0.1288,0.1288,0.1335,0.1341,0.1347,0.1428,0.137,0.1372,0.1374,0.1542,0.1545,0.1548,0,0,0,0,0,0,0.1278,0.1279,0.1286,0.1283,0.1284,0.1286,0.1288,0.1288,0.1292,0.1313,0.1317,0.1292,0.1335,0.1343,0.1397,0.1429,0.1373,0.1376,0.1538,0.1543,0.1547,0.1557,0,0,0,0,0,0,0.1278,0.1279,0.1282,0.1283,0.1284,0.1303,0.1288,0.1288,0.1292,0.1292,0.1318,0.1323,0.1336,0.1393,0.14,0.1432,0.1378,0.1535,0.154,0.1546,0.1553,0.1561,0.1568,0,0,0,0,0,0.1277,0.1283,0.1282,0.1283,0.1288,0.1304,0.1306,0.1305,0.1292,0.1305,0.1332,0.1322,0.1433,0.1397,0.1405,0.1438,0.1532,0.1539,0.1545,0.155,0.156,0.1568,0,0,0,0,0,0,0.1286,0.1284,0.1282,0.1289,0.1301,0.1304,0.1311,0.1307,0.1334,0.1332,0.135,0.1359,0.1427,0.1437,0.1398,0.1511,0.1485,0.1493,0.1486,0.1496,0.1503,0.1556,0.1381,0,0,0,0,0,0.1289,0.1291,0.1296,0.1304,0.1307,0.1308,0.1313,0.1312,0.1332,0.1341,0.1361,0.14,0.146,0.1479,0.1528,0.1573,0.1615,0.1608,0.1615,0.1621,0.1674,0.1781,0.1803,0.157,0.157,0.157,0,0,0.1296,0.1294,0.1297,0.1306,0.1311,0.1333,0.1311,0.1319,0.1353,0.1347,0.1398,0.1428,0.1484,0.1549,0.1579,0.1557,0.1697,0.1629,0.1633,0.1685,0.1791,0.1813,0.1833,0.1574,0.1573,0.1573,0,0,0.131,0.1309,0.1315,0.1328,0.1335,0.1346,0.135,0.1356,0.1375,0.1424,0.1445,0.1511,0.1559,0.1625,0.1663,0.1748,0.1743,0.1739,0.1805,0.1906,0.1926,0.1945,0.1964,0.1984,0.173,0.173,0.173,0,0.1322,0.1329,0.1323,0.1338,0.1358,0.1356,0.1383,0.1408,0.1436,0.1468,0.145,0.1585,0.1619,0.1739,0.1773,0.1768,0.179,0.1751,0.1915,0.1934,0.1953,0.1969,0.1992,0.1732,0.1732,0.1731,0.1731,0,0.134,0.1354,0.1361,0.1385,0.141,0.1431,0.1464,0.1494,0.151,0.1537,0.1643,0.1702,0.1787,0.18,0.1816,0.1961,0.1917,0.1913,0.1883,0.1977,0.1987,0.201,0.1734,0.1733,0.1733,0.1732,0,0,0.1357,0.1371,0.1376,0.1399,0.1436,0.1461,0.1527,0.1593,0.1641,0.1689,0.1773,0.1893,0.1909,0.1961,0.198,0.2071,0.2195,0.2046,0.205,0.2049,0.2359,0.226,0.2274,0.2202,0.2208,0.2213,0.2288,0,0.138,0.1409,0.142,0.148,0.1506,0.154,0.1606,0.1666,0.1715,0.1791,0.1879,0.1959,0.1972,0.2001,0.2109,0.2181,0.2267,0.2172,0.2286,0.2289,0.2179,0.2305,0.2227,0.2285,0.231,0.2314,0.2317,0,0.1399,0.1419,0.1464,0.153,0.1547,0.1587,0.169,0.1743,0.1849,0.1885,0.1985,0.203,0.2182,0.2168,0.2376,0.2301,0.2361,0.2408,0.2411,0.2352,0.2238,0.2213,0.2326,0.2286,0.2352,0.2349,0.2347,0,0.1411,0.146,0.1498,0.1519,0.1588,0.1629,0.1675,0.1769,0.1811,0.1936,0.1968,0.2142,0.2204,0.2355,0.2439,0.2419,0.2634,0.2608,0.2577,0.2565,0.2549,0.2527,0.264,0.2796,0.2796,0.2796,0.2796,0,0.1435,0.147,0.1501,0.1522,0.1581,0.1634,0.1701,0.1764,0.185,0.1901,0.2007,0.2077,0.2261,0.2374,0.2476,0.2584,0.2665,0.2641,0.2618,0.2539,0.2517,0.2519,0.2457,0.2798,0.2798,0.2797,0.2797,0,0.1444,0.1459,0.1504,0.1565,0.1577,0.162,0.1671,0.1716,0.1795,0.1866,0.1899,0.2045,0.2191,0.2332,0.2545,0.2591,0.2646,0.2732,0.2579,0.2539,0.2464,0.2404,0.2405,0.2336,0.2737,0.2736,0.2735,0,0.1449,0.1467,0.1509,0.1516,0.1537,0.1582,0.1602,0.1677,0.171,0.1837,0.1868,0.2013,0.2102,0.2334,0.2484,0.2637,0.2581,0.2613,0.2605,0.2498,0.2416,0.2298,0.2231,0.2558,0.2555,0.2553,0.2551,0,0.1457,0.1465,0.1488,0.1491,0.1504,0.1522,0.1553,0.1566,0.1655,0.171,0.1791,0.1869,0.2081,0.2216,0.2388,0.2481,0.247,0.2572,0.2554,0.2385,0.2181,0.2086,0.24,0.2533,0.2535,0.2536,0.2537,0.2538,0.1446,0.1452,0.1453,0.1461,0.1464,0.1453,0.1445,0.1481,0.1512,0.1587,0.1693,0.1791,0.1996,0.2245,0.2307,0.2372,0.2343,0.237,0.2329,0.2239,0.2118,0.2345,0.2387,0.2388,0.2389,0.239,0.239,0,0.1413,0.141,0.1416,0.1405,0.1383,0.1401,0.14,0.1382,0.1388,0.1498,0.1565,0.176,0.1891,0.2057,0.2208,0.2175,0.2101,0.2123,0.1996,0.1964,0.2282,0.2223,0.2119,0.2119,0.2119,0.2119,0.2119,0.2119,0.1385,0.1365,0.1366,0.1316,0.1305,0.1247,0.123,0.1219,0.1267,0.1351,0.146,0.1589,0.1806,0.1983,0.2025,0.1993,0.1872,0.1764,0.1754,0.2032,0.2054,0.2075,0.2013,0.1866,0.1865,0.1404,0.14,0.1397]},{"header":{"parameterUnit":"m.s-1","parameterCategory":2,"la1":30.2991,"la2":30.254,"lo1":-89.0895,"lo2":-89.0444,"dy":0.0017,"dx":0.0017,"nx":28,"ny":28,"refTime":"2024-09-03T21:00:00:Z","depth":"0","parameterNumber":3,"parameterNumberName":"V-component_of_CURRENTS"},"data":[0,0,0,0,0,0,0,0,0,0,0,0,0,0,0,0,0,0,0,0,0,0,0,0,0,0,0,0,0,0,0,0,0,0,0,0,0,0,0,0,0,0,0,0,0,0,0,0,0,0,0,0,0,0,0,0,0,0,-0.0002,-0.0003,0,-0.0048,-0.0048,-0.0048,-0.0093,-0.0094,-0.0095,-0.0096,0.0031,0.0035,0.0039,0,0,0,0,0,0,0,0,0,0,0,0,0,0.009,0.0089,-0.0002,-0.0003,-0.0004,-0.0048,-0.0048,-0.0048,-0.0093,-0.0094,-0.0095,-0.0096,0.003,0.0035,0.004,0,0,0,0,0,0,0,0,0,0,0,0,0,0.0051,0.0088,-0.0002,-0.0034,-0.0038,-0.0048,-0.0048,-0.0048,-0.0093,-0.0094,-0.0096,-0.0097,0.0028,0.0034,0.0041,0.0108,0,0,0.006,0.0063,0,0,0,0,0,0,0,0,0.0053,0.0048,-0.0028,-0.0032,-0.0036,-0.0069,0.0031,0.0011,-0.0092,-0.0068,-0.0096,-0.0098,0.0012,0.002,0.0017,0.0114,0.0119,0.0061,0.0064,0.0067,0.0069,0,0,0,0,0,0,0,0.0056,0.005,-0.0016,-0.0029,-0.0034,-0.0032,-0.0039,0.0026,-0.0013,-0.007,-0.0075,-0.0085,0.0012,0.0011,0.002,0.0121,0.006,0.0066,0.007,0.0072,0.029,0.0292,0,0,0,0,0,0,0.0053,0.0053,-0.0015,-0.0018,0.0002,-0.0033,-0.004,-0.0054,-0.0018,-0.0016,-0.0084,-0.0087,0.0001,0.0013,0.0025,0.0148,0.0067,0.0073,0.0077,0.0288,0.029,0.0292,0,0,0,0,0,0,0.0056,0.0048,-0.0013,0.0014,0.0005,-0.0034,-0.0048,-0.0054,-0.006,-0.0031,-0.0026,-0.0084,-0.0,0.0016,0.0089,0.0151,0.0076,0.0082,0.0286,0.0289,0.0291,0.0369,0,0,0,0,0,0,0.0058,0.0049,0.0048,0.0013,0.0004,-0.0005,-0.0048,-0.0055,-0.0066,-0.007,-0.0028,-0.0019,0.0,0.0079,0.0095,0.0158,0.0087,0.0283,0.0287,0.029,0.0364,0.0374,0.0382,0,0,0,0,0,0.0062,0.0065,0.0049,0.0041,0.0,-0.0004,-0.0007,-0.0037,-0.0064,-0.005,-0.0028,-0.002,0.0113,0.0086,0.0104,0.0171,0.0281,0.0286,0.029,0.0359,0.0372,0.0382,0,0,0,0,0,0,0.0104,0.0059,0.0041,0.0029,0.0019,-0.0013,-0.0007,-0.0031,-0.0007,-0.0009,0.0011,0.0025,0.0114,0.0128,0.0097,0.0241,0.0198,0.0206,0.0244,0.0256,0.0265,0.0318,0.0092,0,0,0,0,0,0.0113,0.0105,0.0069,0.0065,0.0059,0.0028,0.0022,0.0002,0.0008,0.0013,0.0046,0.0086,0.0148,0.0186,0.0238,0.0325,0.0327,0.0375,0.0385,0.0393,0.0447,0.0494,0.0513,0.0307,0.0307,0.0307,0,0,0.0126,0.0103,0.0097,0.0075,0.0061,0.009,0.0023,0.0019,0.0067,0.0033,0.0119,0.0129,0.0177,0.0268,0.0309,0.0288,0.044,0.0398,0.0405,0.0456,0.05,0.0521,0.0539,0.031,0.0309,0.0309,0,0,0.0164,0.0132,0.0145,0.0148,0.0131,0.0128,0.0129,0.0112,0.0128,0.0198,0.0187,0.0237,0.0324,0.0372,0.0409,0.0508,0.0487,0.0507,0.061,0.0653,0.0671,0.0687,0.0658,0.0671,0.0513,0.0513,0.0513,0,0.0185,0.02,0.0153,0.018,0.0206,0.0154,0.0205,0.0222,0.0238,0.0285,0.0243,0.0374,0.0393,0.0526,0.0545,0.0539,0.0525,0.0559,0.0667,0.0683,0.0699,0.0665,0.0679,0.0517,0.0517,0.0516,0.0516,0,0.024,0.0264,0.0278,0.0306,0.0329,0.0361,0.0377,0.0418,0.0426,0.0445,0.0556,0.0568,0.0649,0.0647,0.0633,0.0754,0.0692,0.0669,0.0639,0.0724,0.0682,0.0695,0.0523,0.0522,0.0521,0.052,0,0,0.0267,0.0309,0.032,0.0377,0.0404,0.0439,0.0532,0.0615,0.069,0.0713,0.0828,0.0896,0.0869,0.0909,0.0881,0.0911,0.0962,0.0837,0.0837,0.0809,0.1005,0.0889,0.089,0.0947,0.0951,0.0954,0.091,0,0.0337,0.0431,0.0434,0.0562,0.0624,0.0639,0.074,0.0807,0.0849,0.0943,0.0969,0.1049,0.0979,0.0997,0.1031,0.0986,0.1009,0.0974,0.0928,0.0927,0.0817,0.0908,0.0841,0.0792,0.0922,0.0924,0.0925,0,0.0402,0.0467,0.059,0.0723,0.0752,0.0825,0.098,0.1054,0.1156,0.1186,0.1256,0.1246,0.1314,0.1222,0.1236,0.1207,0.1137,0.1084,0.108,0.0975,0.0839,0.0741,0.081,0.0667,0.0944,0.0943,0.0941,0,0.0472,0.059,0.0706,0.0747,0.087,0.0956,0.103,0.1135,0.1212,0.1325,0.1367,0.1441,0.1455,0.1431,0.1301,0.1277,0.1275,0.1224,0.1061,0.1047,0.0991,0.0966,0.0933,0.1266,0.1267,0.1267,0.1267,0,0.0558,0.0657,0.0752,0.0819,0.0982,0.1037,0.1194,0.1269,0.137,0.1462,0.1483,0.1548,0.1509,0.1479,0.1374,0.1244,0.1332,0.1119,0.1062,0.1004,0.0983,0.0855,0.079,0.1265,0.1265,0.1266,0.1266,0,0.0622,0.0672,0.0816,0.0961,0.101,0.1128,0.1264,0.1359,0.1439,0.1554,0.1587,0.1638,0.1593,0.1503,0.1431,0.131,0.1114,0.1136,0.1028,0.0961,0.0677,0.0619,0.058,0.0523,0.0979,0.0977,0.0974,0,0.0666,0.074,0.0902,0.0971,0.1039,0.1189,0.1274,0.1387,0.1465,0.1595,0.1649,0.1654,0.1654,0.1488,0.1289,0.11,0.101,0.0906,0.0881,0.069,0.0584,0.0564,0.0519,0.0803,0.0799,0.0796,0.0794,0,0.076,0.0803,0.091,0.103,0.1135,0.1259,0.1384,0.1454,0.1569,0.1651,0.1729,0.1742,0.1584,0.1382,0.1117,0.0978,0.0793,0.0839,0.0712,0.0525,0.044,0.0345,0.0743,0.0769,0.0772,0.0774,0.0775,0.0776,0.0814,0.0891,0.0986,0.1102,0.1204,0.13,0.1389,0.1489,0.16,0.1703,0.1741,0.1744,0.148,0.1117,0.0918,0.0503,0.0583,0.039,0.0352,0.0361,0.028,0.0585,0.0502,0.0503,0.0504,0.0505,0.0505,0,0.087,0.0931,0.1041,0.1163,0.1243,0.1299,0.1435,0.1495,0.1591,0.1674,0.1725,0.1556,0.1208,0.0879,0.0348,0.0075,0.003,-0.0054,-0.0072,-0.0078,0.0247,0.021,-0.0024,-0.0024,-0.0024,-0.0024,-0.0024,-0.0024,0.0898,0.0986,0.103,0.1152,0.1228,0.1327,0.1394,0.1474,0.1545,0.1576,0.1548,0.154,0.1248,0.0421,-0.0186,-0.0314,-0.0431,-0.0491,-0.0516,-0.0301,-0.0262,-0.0224,-0.0273,-0.0604,-0.0605,-0.082,-0.0823,-0.0825]}],[{"header":{"parameterUnit":"m.s-1","parameterCategory":2,"la1":30.2991,"la2":30.254,"lo1":-89.0895,"lo2":-89.0444,"dy":0.0017,"dx":0.0017,"nx":28,"ny":28,"refTime":"2024-09-03T21:00:00:Z","depth":"2","parameterNumber":2,"parameterNumberName":"U-component_of_CURRENTS"},"data":[0,0,0,0,0,0,0,0,0,0,0,0,0,0,0,0,0,0,0,0,0,0,0,0,0,0,0,0,0,0,0,0,0,0,0,0,0,0,0,0,0,0,0,0,0,0,0,0,0,0,0,0,0,0,0,0,0,0,0.1343,0.1343,0,0.1354,0.1355,0.1355,0.1355,0.1354,0.1354,0.1354,0.143,0.1432,0.1435,0,0,0,0,0,0,0,0,0,0,0,0,0,0.1324,0.1325,0.1343,0.1343,0.1343,0.1354,0.1355,0.1355,0.1355,0.1354,0.1354,0.1354,0.1429,0.1432,0.1435,0,0,0,0,0,0,0,0,0,0,0,0,0,0.1335,0.1325,0.1343,0.1343,0.1343,0.1354,0.1355,0.1355,0.1355,0.1354,0.1354,0.1354,0.1429,0.1432,0.1435,0.1463,0,0,0.1445,0.1447,0,0,0,0,0,0,0,0,0.1334,0.1335,0.1343,0.1343,0.1343,0.1352,0.1376,0.1394,0.1355,0.1351,0.1354,0.1353,0.141,0.1415,0.1418,0.1467,0.147,0.1446,0.1448,0.1449,0.145,0,0,0,0,0,0,0,0.1333,0.1335,0.1348,0.1343,0.1343,0.1344,0.1346,0.1379,0.1384,0.1352,0.1351,0.1351,0.141,0.1415,0.142,0.1471,0.1446,0.1449,0.1451,0.1452,0.1617,0.162,0,0,0,0,0,0,0.133,0.1334,0.1348,0.1348,0.1337,0.1345,0.1346,0.135,0.1383,0.1386,0.1352,0.1351,0.1409,0.1416,0.1423,0.151,0.1449,0.1452,0.1454,0.1615,0.1618,0.1621,0,0,0,0,0,0,0.133,0.1332,0.1347,0.1341,0.1343,0.1346,0.135,0.1351,0.1356,0.1382,0.1387,0.1357,0.1409,0.1418,0.1476,0.1511,0.1454,0.1457,0.1612,0.1616,0.1619,0.1653,0,0,0,0,0,0,0.1329,0.1332,0.1337,0.1341,0.1343,0.1368,0.135,0.1351,0.1356,0.1356,0.1388,0.1394,0.1409,0.1472,0.148,0.1515,0.146,0.1609,0.1614,0.1618,0.1649,0.1657,0.1664,0,0,0,0,0,0.1329,0.1337,0.1337,0.1339,0.1349,0.1369,0.1371,0.1372,0.1357,0.1373,0.1401,0.1393,0.1505,0.1476,0.1485,0.1522,0.1607,0.1613,0.1618,0.1645,0.1655,0.1664,0,0,0,0,0,0,0.1338,0.1337,0.1338,0.1347,0.1363,0.1369,0.1376,0.1374,0.1404,0.1402,0.1422,0.1432,0.1497,0.151,0.1477,0.1586,0.1556,0.1564,0.1574,0.1584,0.1591,0.1602,0.1463,0,0,0,0,0,0.1341,0.1344,0.1353,0.1364,0.1368,0.1372,0.1378,0.138,0.1402,0.1412,0.1437,0.1474,0.1527,0.1553,0.1594,0.1651,0.1649,0.1684,0.1692,0.1698,0.1716,0.1755,0.1767,0.1638,0.1638,0.1638,0,0,0.1349,0.1348,0.1352,0.1366,0.1372,0.1399,0.1376,0.1388,0.1421,0.1419,0.1473,0.15,0.1549,0.1617,0.1647,0.1631,0.1727,0.1705,0.171,0.1725,0.1762,0.1774,0.1785,0.1642,0.1641,0.164,0,0,0.1361,0.1365,0.1369,0.1387,0.1398,0.1413,0.1418,0.1431,0.1447,0.1501,0.1515,0.157,0.1632,0.1683,0.1716,0.1795,0.1766,0.18,0.1849,0.1886,0.1896,0.1905,0.1881,0.1887,0.1804,0.1804,0.1804,0,0.1374,0.1382,0.1378,0.1394,0.1421,0.1423,0.1455,0.1478,0.1512,0.1543,0.1527,0.1644,0.1674,0.1778,0.1805,0.1813,0.1802,0.1803,0.1893,0.1903,0.1912,0.1885,0.1892,0.1806,0.1806,0.1806,0.1806,0,0.1387,0.1406,0.1414,0.1443,0.1475,0.1502,0.1537,0.157,0.1587,0.1613,0.1701,0.1745,0.1816,0.1834,0.1845,0.1934,0.1891,0.1893,0.1861,0.1926,0.1893,0.19,0.1809,0.1809,0.1808,0.1807,0,0,0.1398,0.1419,0.1427,0.1453,0.1505,0.1534,0.1601,0.1669,0.1711,0.1755,0.1824,0.1915,0.1918,0.1958,0.1974,0.201,0.2046,0.1976,0.1977,0.1936,0.2078,0.1922,0.1913,0.2053,0.2055,0.2057,0.2014,0,0.1419,0.1453,0.147,0.154,0.1569,0.1615,0.1682,0.1744,0.1789,0.1853,0.1912,0.1976,0.1972,0.1997,0.204,0.2056,0.2072,0.2055,0.2036,0.2035,0.1877,0.192,0.1841,0.1787,0.2021,0.2022,0.2022,0,0.1434,0.1458,0.1515,0.1589,0.1608,0.1659,0.1767,0.1821,0.1913,0.1946,0.202,0.2044,0.2128,0.2096,0.2158,0.214,0.2116,0.2111,0.2109,0.1964,0.1894,0.1771,0.179,0.2033,0.2033,0.2032,0.2031,0,0.1445,0.15,0.1549,0.1576,0.1656,0.1705,0.1758,0.1851,0.1899,0.1997,0.2024,0.2125,0.2146,0.2184,0.2154,0.2165,0.2175,0.219,0.2023,0.2009,0.1941,0.1916,0.2222,0.2222,0.2222,0.2223,0.2223,0,0.147,0.1515,0.1552,0.1585,0.1657,0.171,0.1802,0.1858,0.1939,0.1986,0.2059,0.2087,0.2166,0.2168,0.2169,0.209,0.2183,0.2035,0.2002,0.1943,0.1921,0.2146,0.2137,0.2221,0.2221,0.2222,0.2222,0,0.1484,0.1508,0.1566,0.1637,0.1661,0.1714,0.1809,0.185,0.1925,0.1984,0.2008,0.2064,0.2055,0.2078,0.2102,0.2061,0.2037,0.1974,0.1858,0.1811,0.1846,0.184,0.1827,0.1822,0.1817,0.1813,0.181,0,0.1501,0.1521,0.1589,0.1611,0.1645,0.1722,0.1756,0.1842,0.1871,0.1948,0.1949,0.1959,0.1908,0.1858,0.1847,0.1799,0.1873,0.1658,0.1682,0.1843,0.1813,0.1815,0.1815,0.1598,0.1593,0.159,0.1586,0,0.1523,0.1537,0.1578,0.1598,0.1633,0.1689,0.1737,0.175,0.1823,0.1832,0.1807,0.1765,0.1721,0.1621,0.1536,0.1516,0.1674,0.1571,0.1808,0.1687,0.1618,0.159,0.1601,0.1552,0.1555,0.1558,0.156,0.1561,0.1534,0.1549,0.1557,0.1583,0.1612,0.1611,0.1627,0.1632,0.1623,0.1575,0.161,0.1498,0.1498,0.1315,0.127,0.1283,0.139,0.1369,0.1387,0.1408,0.1366,0.129,0.1152,0.1153,0.1154,0.1155,0.1155,0,0.1517,0.1516,0.1526,0.1529,0.1513,0.1571,0.1572,0.1531,0.1449,0.1394,0.1323,0.1157,0.1054,0.1083,0.1054,0.1025,0.1088,0.0992,0.1101,0.1135,0.1165,0.1117,0.0834,0.0833,0.0832,0.083,0,0,0.1498,0.1476,0.1461,0.1409,0.1431,0.1396,0.1392,0.1303,0.1249,0.1057,0.098,0.097,0.1027,0.0905,0.0901,0.087,0.0999,0.0841,0.1104,0.1268,0.1296,0.1389,0.1351,0,0,0,0,0]},{"header":{"parameterUnit":"m.s-1","parameterCategory":2,"la1":30.2991,"la2":30.254,"lo1":-89.0895,"lo2":-89.0444,"dy":0.0017,"dx":0.0017,"nx":28,"ny":28,"refTime":"2024-09-03T21:00:00:Z","depth":"2","parameterNumber":3,"parameterNumberName":"V-component_of_CURRENTS"},"data":[0,0,0,0,0,0,0,0,0,0,0,0,0,0,0,0,0,0,0,0,0,0,0,0,0,0,0,0,0,0,0,0,0,0,0,0,0,0,0,0,0,0,0,0,0,0,0,0,0,0,0,0,0,0,0,0,0,0,-0.0095,-0.0096,0,-0.015,-0.0151,-0.0151,-0.0193,-0.0194,-0.0194,-0.0195,-0.0235,-0.0236,-0.0236,0,0,0,0,0,0,0,0,0,0,0,0,0,-0.0015,-0.0016,-0.0095,-0.0096,-0.0097,-0.015,-0.0151,-0.0151,-0.0193,-0.0194,-0.0195,-0.0195,-0.0235,-0.0236,-0.0236,0,0,0,0,0,0,0,0,0,0,0,0,0,-0.0055,-0.0017,-0.0095,-0.0126,-0.013,-0.015,-0.0151,-0.0151,-0.0193,-0.0194,-0.0195,-0.0196,-0.0235,-0.0236,-0.0236,-0.0222,0,0,-0.0239,-0.0239,0,0,0,0,0,0,0,0,-0.0053,-0.0058,-0.0121,-0.0124,-0.0128,-0.0168,-0.0138,-0.0175,-0.0193,-0.0166,-0.0195,-0.0196,-0.0213,-0.0215,-0.022,-0.0224,-0.0225,-0.0239,-0.0239,-0.0239,-0.024,0,0,0,0,0,0,0,-0.005,-0.0056,-0.0114,-0.0122,-0.0126,-0.0134,-0.0141,-0.0145,-0.0181,-0.0168,-0.0172,-0.0183,-0.0214,-0.0219,-0.0221,-0.0226,-0.0239,-0.0239,-0.024,-0.024,-0.0241,-0.0241,0,0,0,0,0,0,-0.0049,-0.0053,-0.0113,-0.0116,-0.0095,-0.0135,-0.0142,-0.0152,-0.0181,-0.0188,-0.0182,-0.0184,-0.0217,-0.022,-0.0223,-0.0211,-0.0239,-0.024,-0.0241,-0.0242,-0.0241,-0.0241,0,0,0,0,0,0,-0.0047,-0.0053,-0.011,-0.0088,-0.0096,-0.0136,-0.0146,-0.0153,-0.0161,-0.0192,-0.0198,-0.0184,-0.0218,-0.0222,-0.0218,-0.0213,-0.024,-0.0241,-0.0242,-0.0241,-0.0241,-0.0186,0,0,0,0,0,0,-0.0044,-0.0052,-0.0051,-0.0088,-0.0098,-0.0113,-0.0146,-0.0153,-0.0167,-0.0171,-0.0195,-0.02,-0.0219,-0.0217,-0.0219,-0.0215,-0.0242,-0.0243,-0.0242,-0.0241,-0.0188,-0.0183,-0.0179,0,0,0,0,0,-0.0041,-0.0038,-0.0051,-0.0058,-0.0098,-0.0113,-0.0117,-0.0147,-0.0166,-0.0159,-0.0176,-0.0199,-0.0215,-0.0216,-0.0219,-0.0215,-0.0243,-0.0242,-0.0241,-0.019,-0.0184,-0.0179,0,0,0,0,0,0,-0.0004,-0.0044,-0.0058,-0.0068,-0.0085,-0.0121,-0.012,-0.0142,-0.015,-0.0154,-0.0184,-0.0189,-0.0182,-0.0205,-0.0207,-0.0215,-0.0236,-0.0236,-0.0197,-0.0192,-0.0187,-0.0163,-0.0242,0,0,0,0,0,0.0005,-0.0001,-0.0038,-0.0041,-0.005,-0.0082,-0.0091,-0.0112,-0.013,-0.0136,-0.015,-0.0169,-0.018,-0.019,-0.0195,-0.0196,-0.0235,-0.02,-0.0195,-0.0191,-0.0174,-0.0238,-0.0238,-0.0238,-0.0238,-0.0238,0,0,0.0017,-0.0004,-0.0008,-0.0033,-0.0049,-0.0052,-0.0089,-0.0099,-0.0101,-0.0137,-0.0129,-0.0143,-0.0173,-0.0171,-0.0173,-0.0192,-0.0212,-0.019,-0.0186,-0.0171,-0.0237,-0.0237,-0.0238,-0.0237,-0.0237,-0.0237,0,0,0.0035,0.0022,0.002,0.0012,-0.0011,-0.0025,-0.0026,-0.0052,-0.0064,-0.0052,-0.0087,-0.0093,-0.01,-0.0129,-0.0144,-0.0119,-0.0177,-0.013,-0.0099,-0.0162,-0.0162,-0.0163,-0.0216,-0.0222,-0.0141,-0.0141,-0.0141,0,0.0051,0.0044,0.002,0.0019,0.0025,-0.001,0.0001,-0.0016,-0.0035,-0.0031,-0.0037,-0.0051,-0.0078,-0.0097,-0.0091,-0.0108,-0.0153,-0.0116,-0.0156,-0.0158,-0.016,-0.0214,-0.0221,-0.0138,-0.0138,-0.0139,-0.0139,0,0.0065,0.0064,0.0068,0.006,0.0067,0.0073,0.0051,0.005,0.0047,0.0041,0.0046,0.0014,0.0005,-0.0017,-0.0042,-0.0075,-0.0105,-0.0135,-0.0169,-0.0157,-0.0214,-0.0223,-0.0134,-0.0135,-0.0136,-0.0137,0,0,0.0082,0.0078,0.0081,0.0085,0.0093,0.0093,0.0106,0.011,0.0111,0.0111,0.0119,0.0101,0.009,0.0071,0.0021,-0.0039,-0.0097,-0.009,-0.0095,-0.0139,-0.0236,-0.0221,-0.023,-0.0145,-0.0146,-0.0147,-0.0272,0,0.0101,0.0111,0.0118,0.0142,0.0145,0.0147,0.0173,0.0175,0.0169,0.0169,0.0139,0.0139,0.0116,0.0103,0.0048,-0.0058,-0.0116,-0.0059,-0.0242,-0.0247,-0.0234,-0.0238,-0.0194,-0.0298,-0.028,-0.0282,-0.0283,0,0.0112,0.0115,0.015,0.0177,0.0186,0.0212,0.024,0.0257,0.0251,0.025,0.0245,0.0216,0.0162,0.0125,-0.0023,0.0011,-0.0094,-0.0182,-0.019,-0.0196,-0.0248,-0.0308,-0.0316,-0.0298,-0.0297,-0.0296,-0.0295,0,0.0124,0.0139,0.0175,0.0185,0.0216,0.0244,0.0275,0.0291,0.03,0.0294,0.0285,0.0246,0.0199,0.0088,-0.006,-0.0053,-0.0248,-0.0267,-0.035,-0.0351,-0.0356,-0.0354,-0.0379,-0.0379,-0.0378,-0.0378,-0.0378,0,0.0146,0.0163,0.0179,0.0195,0.0244,0.0272,0.0319,0.0336,0.0347,0.0344,0.033,0.0272,0.0181,0.0063,-0.0058,-0.0221,-0.0245,-0.0335,-0.038,-0.0334,-0.033,-0.036,-0.0356,-0.0383,-0.0382,-0.0381,-0.038,0,0.0158,0.0173,0.02,0.0237,0.0251,0.0294,0.0344,0.0345,0.0375,0.0352,0.0352,0.0279,0.0148,0.0042,-0.016,-0.0231,-0.0386,-0.0448,-0.0372,-0.0404,-0.0446,-0.0437,-0.0531,-0.0531,-0.0531,-0.0532,-0.0532,0,0.0172,0.018,0.0225,0.0232,0.0253,0.0299,0.0315,0.0363,0.0343,0.032,0.028,0.0192,0.0108,-0.0124,-0.0246,-0.0401,-0.0442,-0.048,-0.0441,-0.0425,-0.0461,-0.0452,-0.0443,-0.0439,-0.0439,-0.0438,-0.0438,0,0.0171,0.0192,0.0214,0.0222,0.0238,0.0259,0.0273,0.027,0.0294,0.0274,0.0195,0.0149,-0.0005,-0.0123,-0.0275,-0.0387,-0.0427,-0.0475,-0.0512,-0.0389,-0.0344,-0.0377,-0.0371,-0.0434,-0.0435,-0.0435,-0.0435,-0.0435,0.0158,0.0169,0.0173,0.0192,0.021,0.0198,0.0209,0.0195,0.0194,0.0204,0.0146,0.0128,0.0021,-0.013,-0.0285,-0.041,-0.0428,-0.0472,-0.0471,-0.0472,-0.042,-0.0376,-0.0464,-0.0464,-0.0465,-0.0465,-0.0465,0,0.0088,0.0096,0.0112,0.0123,0.0132,0.0163,0.0153,0.0163,0.0149,0.0194,0.0195,0.0128,0.0031,-0.009,-0.0257,-0.0381,-0.0381,-0.0425,-0.0392,-0.0395,-0.0398,-0.0341,-0.0365,-0.0365,-0.0365,-0.0365,0,0,0.0032,0.0003,0.0019,0.0024,0.006,0.0067,0.0075,0.0106,0.0145,0.0195,0.0242,0.0285,0.0107,0.0011,-0.0158,-0.0255,-0.0297,-0.0275,-0.0344,-0.029,-0.0291,-0.0417,-0.0331,0,0,0,0,0]}],[{"header":{"parameterUnit":"m.s-1","parameterCategory":2,"la1":30.2991,"la2":30.254,"lo1":-89.0895,"lo2":-89.0444,"dy":0.0017,"dx":0.0017,"nx":28,"ny":28,"refTime":"2024-09-03T21:00:00:Z","depth":"4","parameterNumber":2,"parameterNumberName":"U-component_of_CURRENTS"},"data":[0,0,0,0,0,0,0,0,0,0,0,0,0,0,0,0,0,0,0,0,0,0,0,0,0,0,0,0,0,0,0,0,0,0,0,0,0,0,0,0,0,0,0,0,0,0,0,0,0,0,0,0,0,0,0,0,0,0,0.0298,0.0298,0,0.0312,0.0312,0.0312,0.0356,0.0358,0.0359,0.036,0.038,0.038,0.0379,0,0,0,0,0,0,0,0,0,0,0,0,0,0.0312,0.0311,0.0298,0.0298,0.0299,0.0312,0.0312,0.0312,0.0356,0.0358,0.0359,0.0361,0.0381,0.038,0.0379,0,0,0,0,0,0,0,0,0,0,0,0,0,0.0311,0.0311,0.0298,0.0324,0.0327,0.0312,0.0312,0.0312,0.0356,0.0358,0.036,0.0361,0.0381,0.038,0.0379,0.0336,0,0,0.0376,0.0376,0,0,0,0,0,0,0,0,0.0311,0.031,0.032,0.0323,0.0326,0.0337,0.0325,0.0321,0.0355,0.0342,0.036,0.0362,0.0367,0.0367,0.0362,0.0337,0.0338,0.0376,0.0376,0.0375,0.0375,0,0,0,0,0,0,0,0.0311,0.031,0.03,0.032,0.0324,0.0338,0.0339,0.0324,0.0341,0.0343,0.0347,0.0353,0.0369,0.0362,0.0362,0.0338,0.0376,0.0375,0.0375,0.0374,0.0388,0.0389,0,0,0,0,0,0,0.0313,0.0309,0.03,0.0301,0.0326,0.0336,0.0338,0.0329,0.0342,0.0346,0.0351,0.0355,0.0363,0.0363,0.0363,0.0405,0.0375,0.0374,0.0374,0.0387,0.0388,0.0389,0,0,0,0,0,0,0.0313,0.0311,0.0299,0.0309,0.0309,0.0334,0.0324,0.0328,0.0368,0.0348,0.0353,0.0392,0.0364,0.0365,0.0385,0.0403,0.0374,0.0373,0.0386,0.0387,0.0388,0.043,0,0,0,0,0,0,0.0313,0.031,0.0313,0.0309,0.0309,0.0323,0.0323,0.0327,0.0367,0.0373,0.0383,0.0385,0.0366,0.0386,0.0384,0.0401,0.0372,0.0385,0.0386,0.0388,0.0427,0.0432,0.0437,0,0,0,0,0,0.0313,0.0316,0.0313,0.0313,0.0308,0.0325,0.0327,0.0348,0.0368,0.039,0.0395,0.0387,0.0396,0.0386,0.0383,0.0401,0.0384,0.0386,0.0388,0.0425,0.0431,0.0437,0,0,0,0,0,0,0.0319,0.0321,0.0317,0.0319,0.0334,0.0335,0.036,0.0372,0.0391,0.0404,0.0393,0.0393,0.0416,0.0405,0.0395,0.0411,0.039,0.0392,0.042,0.0425,0.043,0.0433,0.0371,0,0,0,0,0,0.0319,0.0331,0.0328,0.0336,0.0348,0.0359,0.0373,0.0385,0.0398,0.0411,0.0411,0.0414,0.0411,0.042,0.0411,0.0419,0.04,0.0431,0.0436,0.044,0.0441,0.0428,0.0432,0.0396,0.0396,0.0396,0,0,0.0313,0.0328,0.0326,0.034,0.0355,0.0365,0.0374,0.0408,0.0415,0.0406,0.0428,0.0429,0.0418,0.0425,0.0435,0.0426,0.0441,0.0442,0.0446,0.0445,0.0431,0.0434,0.0437,0.0397,0.0397,0.0397,0,0,0.0334,0.0334,0.0357,0.0369,0.0403,0.04,0.0421,0.0434,0.0449,0.0461,0.0457,0.0475,0.0471,0.0464,0.046,0.0487,0.0464,0.0494,0.0522,0.051,0.0512,0.0514,0.0497,0.0497,0.0499,0.0499,0.05,0,0.0332,0.0349,0.0368,0.0397,0.0403,0.0422,0.0435,0.0444,0.046,0.0472,0.048,0.0483,0.0484,0.0486,0.0504,0.0497,0.0486,0.05,0.0515,0.0517,0.0518,0.0499,0.0499,0.0502,0.0501,0.0501,0.0501,0,0.0371,0.0378,0.04,0.0427,0.044,0.0458,0.0463,0.048,0.0498,0.0505,0.0527,0.0518,0.0531,0.0531,0.0529,0.0543,0.0531,0.0519,0.0498,0.0524,0.0503,0.0502,0.0505,0.0504,0.0503,0.0503,0,0,0.0367,0.0412,0.0421,0.0429,0.0452,0.0466,0.0478,0.0493,0.051,0.0528,0.0544,0.0557,0.0578,0.0575,0.0573,0.0564,0.0573,0.0558,0.0556,0.0537,0.0545,0.0565,0.0565,0.0566,0.0566,0.0566,0.0527,0,0.0387,0.0436,0.0451,0.047,0.0476,0.0483,0.0489,0.0508,0.0522,0.054,0.0554,0.057,0.0587,0.0598,0.0601,0.0568,0.0572,0.0584,0.0527,0.0525,0.0536,0.0566,0.0567,0.0526,0.0525,0.0525,0.0525,0,0.0412,0.0439,0.0467,0.0475,0.0483,0.0499,0.0511,0.052,0.0545,0.0556,0.0586,0.06,0.0612,0.0614,0.0593,0.0602,0.0596,0.0565,0.0563,0.0566,0.0543,0.0495,0.0522,0.0523,0.0523,0.0523,0.0523,0,0.0398,0.044,0.0465,0.0469,0.0487,0.0506,0.0521,0.054,0.0547,0.0577,0.059,0.0606,0.0616,0.0599,0.0594,0.0592,0.0551,0.0533,0.0541,0.0541,0.0513,0.0511,0.0528,0.0528,0.0528,0.0528,0.0528,0,0.0389,0.0408,0.0471,0.0473,0.049,0.052,0.0535,0.0542,0.0568,0.058,0.0619,0.0618,0.0617,0.0609,0.059,0.0572,0.0559,0.0551,0.0538,0.0532,0.0533,0.0512,0.051,0.0526,0.0527,0.0527,0.0527,0,0.0357,0.04,0.0417,0.0463,0.0474,0.0495,0.0526,0.0537,0.0574,0.0583,0.0599,0.0629,0.0627,0.0621,0.0579,0.0572,0.0535,0.0537,0.0536,0.0521,0.0527,0.0529,0.0521,0.0522,0.0522,0.0522,0.0523,0,0.0347,0.0356,0.0399,0.0408,0.0433,0.0468,0.0476,0.0519,0.0532,0.058,0.0581,0.0615,0.0632,0.0584,0.0581,0.055,0.0556,0.0533,0.0536,0.0542,0.0529,0.053,0.0531,0.0523,0.0524,0.0524,0.0524,0,0.0304,0.0331,0.0344,0.0358,0.0383,0.0395,0.043,0.0435,0.0492,0.0533,0.0559,0.0579,0.0589,0.0577,0.0582,0.0553,0.0535,0.0537,0.0535,0.0538,0.0545,0.0532,0.0532,0.0525,0.0525,0.0525,0.0525,0,0.0276,0.0275,0.0296,0.031,0.0325,0.0333,0.0351,0.0391,0.0415,0.0496,0.0496,0.054,0.0574,0.0579,0.0564,0.0564,0.0554,0.0527,0.0525,0.0524,0.055,0.056,0.0539,0,0,0,0,0,0.0248,0.0248,0.0245,0.0258,0.027,0.0288,0.0322,0.0353,0.0417,0.0427,0.0471,0.0487,0.0516,0.053,0.053,0.0556,0.0542,0.0554,0.0505,0.0534,0.0532,0.0566,0,0,0,0,0,0,0.0231,0.0232,0.0232,0.0217,0.0222,0.0235,0.0261,0.0302,0.0319,0.0389,0.0402,0.0469,0.0491,0.0512,0.0524,0.0531,0.0494,0.0589,0.0588,0.0535,0.0533,0.0532,0.0566,0,0,0,0,0]},{"header":{"parameterUnit":"m.s-1","parameterCategory":2,"la1":30.2991,"la2":30.254,"lo1":-89.0895,"lo2":-89.0444,"dy":0.0017,"dx":0.0017,"nx":28,"ny":28,"refTime":"2024-09-03T21:00:00:Z","depth":"4","parameterNumber":3,"parameterNumberName":"V-component_of_CURRENTS"},"data":[0,0,0,0,0,0,0,0,0,0,0,0,0,0,0,0,0,0,0,0,0,0,0,0,0,0,0,0,0,0,0,0,0,0,0,0,0,0,0,0,0,0,0,0,0,0,0,0,0,0,0,0,0,0,0,0,0,0,0.0034,0.0034,0,-0.003,-0.0031,-0.0032,-0.0054,-0.0053,-0.0053,-0.0052,-0.0192,-0.0196,-0.02,0,0,0,0,0,0,0,0,0,0,0,0,0,0.0018,0.0019,0.0034,0.0033,0.0033,-0.003,-0.0031,-0.0032,-0.0054,-0.0053,-0.0053,-0.0052,-0.0191,-0.0196,-0.0201,0,0,0,0,0,0,0,0,0,0,0,0,0,-0.0005,0.0019,0.0034,0.0016,0.0014,-0.0029,-0.0031,-0.0032,-0.0054,-0.0053,-0.0053,-0.0052,-0.0189,-0.0195,-0.0201,-0.0255,0,0,-0.0221,-0.0223,0,0,0,0,0,0,0,0,-0.0004,-0.0005,0.0019,0.0017,0.0015,-0.0031,-0.0088,-0.0109,-0.0054,-0.0031,-0.0052,-0.0052,-0.0144,-0.0154,-0.017,-0.0261,-0.0267,-0.0221,-0.0225,-0.0228,-0.0229,0,0,0,0,0,0,0,-0.0002,-0.0003,0.0006,0.0019,0.0016,-0.0029,-0.0031,-0.0092,-0.0094,-0.0033,-0.0034,-0.0037,-0.0146,-0.0164,-0.0174,-0.0269,-0.0221,-0.0227,-0.023,-0.0233,-0.0396,-0.0396,0,0,0,0,0,0,0.0017,-0.0001,0.0008,0.0005,0.001,-0.0029,-0.0031,-0.0019,-0.0092,-0.0101,-0.0038,-0.0038,-0.0154,-0.0167,-0.0179,-0.0257,-0.0228,-0.0233,-0.0237,-0.0395,-0.0396,-0.0396,0,0,0,0,0,0,0.0017,0.0019,0.0011,0.0001,-0.0003,-0.0028,-0.0015,-0.002,-0.0049,-0.0094,-0.0105,-0.0061,-0.0154,-0.017,-0.0239,-0.0262,-0.0236,-0.0242,-0.0394,-0.0395,-0.0396,-0.0407,0,0,0,0,0,0,0.0017,0.0019,0.0024,0.0003,-0.0001,-0.003,-0.0016,-0.0022,-0.005,-0.0051,-0.0118,-0.0129,-0.0154,-0.023,-0.0245,-0.027,-0.0247,-0.0394,-0.0395,-0.0396,-0.0406,-0.0408,-0.041,0,0,0,0,0,0.0017,0.0017,0.0025,0.0026,0.0011,-0.0031,-0.0039,-0.0057,-0.0051,-0.0077,-0.0111,-0.0128,-0.0246,-0.0236,-0.0254,-0.0281,-0.0393,-0.0394,-0.0396,-0.0405,-0.0407,-0.041,0,0,0,0,0,0,0.0006,0.0014,0.0023,0.0026,-0.0004,-0.0034,-0.0056,-0.0067,-0.0113,-0.0114,-0.0151,-0.0167,-0.0228,-0.0255,-0.0242,-0.0327,-0.0317,-0.0322,-0.0318,-0.0321,-0.0323,-0.0329,-0.0252,0,0,0,0,0,0.0011,0.0016,0.0005,0.0001,-0.0008,-0.0034,-0.0054,-0.0067,-0.0104,-0.0123,-0.0168,-0.0209,-0.0247,-0.0284,-0.0324,-0.0391,-0.0393,-0.0413,-0.0415,-0.0417,-0.0432,-0.0452,-0.0457,-0.0401,-0.0401,-0.04,0,0,0.0009,0.001,0.0015,-0.0001,-0.0021,-0.005,-0.0046,-0.0081,-0.011,-0.0134,-0.0197,-0.0224,-0.0264,-0.0321,-0.0352,-0.0352,-0.0427,-0.0419,-0.042,-0.0435,-0.0454,-0.0459,-0.0464,-0.0401,-0.0401,-0.0401,0,0,-0.0011,0.0005,-0.0004,-0.003,-0.0059,-0.0074,-0.0086,-0.0125,-0.0144,-0.0205,-0.0214,-0.0256,-0.0336,-0.0361,-0.0382,-0.0425,-0.0431,-0.0435,-0.0467,-0.0486,-0.049,-0.0495,-0.0474,-0.0477,-0.0444,-0.0444,-0.0444,0,-0.0015,-0.0021,-0.0022,-0.005,-0.0069,-0.0085,-0.0114,-0.0143,-0.0203,-0.0225,-0.0227,-0.0317,-0.0351,-0.0407,-0.0417,-0.0432,-0.0432,-0.0455,-0.0488,-0.0493,-0.0498,-0.0476,-0.0479,-0.0445,-0.0445,-0.0445,-0.0445,0,-0.0052,-0.0058,-0.0074,-0.0098,-0.0127,-0.0158,-0.0184,-0.0217,-0.0236,-0.0266,-0.0326,-0.0365,-0.0418,-0.0429,-0.0445,-0.0494,-0.0477,-0.0481,-0.0481,-0.0504,-0.0479,-0.0482,-0.0446,-0.0446,-0.0445,-0.0445,0,0,-0.0052,-0.0085,-0.0093,-0.0106,-0.015,-0.0176,-0.0217,-0.026,-0.0278,-0.034,-0.0374,-0.0443,-0.0462,-0.0486,-0.0504,-0.0529,-0.0548,-0.0528,-0.0529,-0.0506,-0.0565,-0.0522,-0.052,-0.0562,-0.0563,-0.0564,-0.0524,0,-0.008,-0.0121,-0.0137,-0.0185,-0.0203,-0.0226,-0.0261,-0.0304,-0.0329,-0.0369,-0.0412,-0.0453,-0.0483,-0.0498,-0.0537,-0.0541,-0.0561,-0.0557,-0.0549,-0.0549,-0.0507,-0.0525,-0.0568,-0.0526,-0.0526,-0.0527,-0.0527,0,-0.0117,-0.0133,-0.0173,-0.0205,-0.0216,-0.025,-0.0285,-0.032,-0.037,-0.039,-0.0444,-0.047,-0.0527,-0.0533,-0.0583,-0.058,-0.0586,-0.0585,-0.0584,-0.0549,-0.0512,-0.0507,-0.0532,-0.0532,-0.0531,-0.0531,-0.0531,0,-0.0117,-0.0161,-0.0185,-0.0203,-0.0244,-0.0266,-0.0289,-0.0333,-0.0342,-0.0399,-0.04,-0.0484,-0.0491,-0.0545,-0.056,-0.0576,-0.0582,-0.0596,-0.0559,-0.0554,-0.0599,-0.0595,-0.0632,-0.0632,-0.0632,-0.0633,-0.0633,0,-0.0139,-0.0163,-0.0186,-0.0203,-0.0228,-0.0264,-0.0287,-0.0316,-0.034,-0.0339,-0.0412,-0.0406,-0.0496,-0.0509,-0.0551,-0.0553,-0.0577,-0.057,-0.0553,-0.0599,-0.0595,-0.0598,-0.0595,-0.0631,-0.0631,-0.0632,-0.0632,0,-0.0148,-0.0163,-0.019,-0.0223,-0.0229,-0.0252,-0.0265,-0.0266,-0.0296,-0.0285,-0.0298,-0.0341,-0.0364,-0.0425,-0.0471,-0.0504,-0.0528,-0.0519,-0.0531,-0.0514,-0.0489,-0.0486,-0.049,-0.0489,-0.0488,-0.0486,-0.0485,0,-0.0155,-0.0168,-0.0194,-0.0189,-0.0205,-0.0224,-0.0219,-0.0248,-0.0232,-0.0229,-0.0211,-0.0232,-0.0265,-0.0285,-0.0374,-0.0443,-0.0457,-0.0462,-0.0528,-0.0497,-0.048,-0.048,-0.048,-0.0483,-0.0483,-0.0483,-0.0482,0,-0.0159,-0.0171,-0.0183,-0.0168,-0.0165,-0.0157,-0.015,-0.0129,-0.0136,-0.0157,-0.0118,-0.0153,-0.0164,-0.0243,-0.0286,-0.0344,-0.0468,-0.0448,-0.0453,-0.0516,-0.0488,-0.0473,-0.0474,-0.0478,-0.0478,-0.0479,-0.0479,0,-0.0153,-0.0153,-0.0149,-0.0144,-0.0126,-0.0087,-0.0093,-0.006,-0.0051,-0.0048,-0.0026,-0.0071,-0.0108,-0.0186,-0.0229,-0.0284,-0.0319,-0.0349,-0.0359,-0.0365,-0.0359,-0.0308,-0.0232,0,0,0,0,0,-0.0136,-0.012,-0.011,-0.0094,-0.0077,-0.0067,-0.0036,-0.0037,-0.0033,0.0011,-0.0008,-0.0021,-0.0088,-0.0128,-0.0174,-0.0227,-0.0341,-0.0284,-0.0383,-0.0452,-0.0457,-0.047,0,0,0,0,0,0,-0.0113,-0.01,-0.0099,-0.0052,-0.0035,-0.0004,0.0016,0.0019,0.0038,0.0032,-0.0003,-0.0035,-0.0109,-0.0062,-0.0177,-0.0197,-0.0264,-0.033,-0.033,-0.0449,-0.0454,-0.0458,-0.0473,0,0,0,0,0]}]]